owner,sensor,date,latitude,longitude,vertical_datum,sea_water_practical_salinity,qcFlag 
DISL,ioos:station:DISL:BSCA:1,2018-10-01T00:00:00Z,30.3288,-87.8293,1.8,18.7,11111222 
DISL,ioos:station:DISL:BSCA:1,2018-10-01T00:30:00Z,30.3288,-87.8293,1.848,18.73,1111122 
DISL,ioos:station:DISL:BSCA:1,2018-10-01T01:00:00Z,30.3288,-87.8293,1.844,17.61,1111122 
DISL,ioos:station:DISL:BSCA:1,2018-10-01T01:30:00Z,30.3288,-87.8293,1.9,18.3,11111222 
DISL,ioos:station:DISL:BSCA:1,2018-10-01T02:00:00Z,30.3288,-87.8293,1.9,17.5,11111222 
DISL,ioos:station:DISL:BSCA:1,2018-10-01T02:30:00Z,30.3288,-87.8293,1.843,16.84,1111122 
DISL,ioos:station:DISL:BSCA:1,2018-10-01T03:00:00Z,30.3288,-87.8293,1.862,17.74,1111122 
DISL,ioos:station:DISL:BSCA:1,2018-10-01T03:30:00Z,30.3288,-87.8293,1.8,16.3,11111222 
DISL,ioos:station:DISL:BSCA:1,2018-10-01T04:00:00Z,30.3288,-87.8293,1.878,16.41,1111122 
DISL,ioos:station:DISL:BSCA:1,2018-10-01T04:30:00Z,30.3288,-87.8293,1.9,16.7,11111222 
DISL,ioos:station:DISL:BSCA:1,2018-10-01T05:00:00Z,30.3288,-87.8293,1.9,17.8,11111222 
DISL,ioos:station:DISL:BSCA:1,2018-10-01T05:30:00Z,30.3288,-87.8293,1.917,16.57,1111122 
DISL,ioos:station:DISL:BSCA:1,2018-10-01T06:00:00Z,30.3288,-87.8293,1.922,16.55,1111122 
DISL,ioos:station:DISL:BSCA:1,2018-10-01T06:30:00Z,30.3288,-87.8293,1.9,16.6,11111222 
DISL,ioos:station:DISL:BSCA:1,2018-10-01T07:00:00Z,30.3288,-87.8293,1.951,16.55,1111122 
DISL,ioos:station:DISL:BSCA:1,2018-10-01T07:30:00Z,30.3288,-87.8293,2.0,16.5,11111222 
DISL,ioos:station:DISL:BSCA:1,2018-10-01T08:00:00Z,30.3288,-87.8293,2.0,16.6,11111222 
DISL,ioos:station:DISL:BSCA:1,2018-10-01T08:30:00Z,30.3288,-87.8293,1.975,16.48,1111122 
DISL,ioos:station:DISL:BSCA:1,2018-10-01T09:00:00Z,30.3288,-87.8293,2.0,16.5,11111222 
DISL,ioos:station:DISL:BSCA:1,2018-10-01T09:30:00Z,30.3288,-87.8293,1.981,16.59,1111122 
DISL,ioos:station:DISL:BSCA:1,2018-10-01T10:00:00Z,30.3288,-87.8293,1.983,16.83,1111122 
DISL,ioos:station:DISL:BSCA:1,2018-10-01T10:30:00Z,30.3288,-87.8293,2.0,16.8,11111222 
DISL,ioos:station:DISL:BSCA:1,2018-10-01T11:00:00Z,30.3288,-87.8293,1.978,16.7,1111122 
DISL,ioos:station:DISL:BSCA:1,2018-10-01T11:30:00Z,30.3288,-87.8293,2.0,16.5,11111222 
DISL,ioos:station:DISL:BSCA:1,2018-10-01T12:00:00Z,30.3288,-87.8293,1.9,16.5,11111222 
DISL,ioos:station:DISL:BSCA:1,2018-10-01T12:30:00Z,30.3288,-87.8293,1.893,16.25,1111122 
DISL,ioos:station:DISL:BSCA:1,2018-10-01T13:00:00Z,30.3288,-87.8293,1.867,16.28,1111122 
DISL,ioos:station:DISL:BSCA:1,2018-10-01T13:30:00Z,30.3288,-87.8293,1.8,16.3,11111222 
DISL,ioos:station:DISL:BSCA:1,2018-10-01T14:00:00Z,30.3288,-87.8293,1.809,16.21,1111122 
DISL,ioos:station:DISL:BSCA:1,2018-10-01T14:30:00Z,30.3288,-87.8293,1.8,16.1,11111222 
DISL,ioos:station:DISL:BSCA:1,2018-10-01T15:00:00Z,30.3288,-87.8293,1.7,16.0,11111222 
DISL,ioos:station:DISL:BSCA:1,2018-10-01T15:30:00Z,30.3288,-87.8293,1.709,16.0,1111122 
DISL,ioos:station:DISL:BSCA:1,2018-10-01T16:00:00Z,30.3288,-87.8293,1.7,16.0,11111222 
DISL,ioos:station:DISL:BSCA:1,2018-10-01T16:30:00Z,30.3288,-87.8293,1.649,15.97,1111122 
DISL,ioos:station:DISL:BSCA:1,2018-10-01T17:00:00Z,30.3288,-87.8293,1.6,16.0,11111222 
DISL,ioos:station:DISL:BSCA:1,2018-10-01T17:30:00Z,30.3288,-87.8293,1.606,16.04,1111122 
DISL,ioos:station:DISL:BSCA:1,2018-10-01T18:00:00Z,30.3288,-87.8293,1.6,16.0,11111222 
DISL,ioos:station:DISL:BSCA:1,2018-10-01T18:30:00Z,30.3288,-87.8293,1.581,16.05,1111122 
DISL,ioos:station:DISL:BSCA:1,2018-10-01T19:00:00Z,30.3288,-87.8293,1.568,16.06,1111122 
DISL,ioos:station:DISL:BSCA:1,2018-10-01T19:30:00Z,30.3288,-87.8293,1.6,16.1,11111222 
DISL,ioos:station:DISL:BSCA:1,2018-10-01T20:00:00Z,30.3288,-87.8293,1.6,16.1,11111222 
DISL,ioos:station:DISL:BSCA:1,2018-10-01T20:30:00Z,30.3288,-87.8293,1.564,16.12,1111122 
DISL,ioos:station:DISL:BSCA:1,2018-10-01T21:00:00Z,30.3288,-87.8293,1.6,16.1,11111222 
DISL,ioos:station:DISL:BSCA:1,2018-10-01T21:30:00Z,30.3288,-87.8293,1.57,16.13,1111122 
DISL,ioos:station:DISL:BSCA:1,2018-10-01T22:00:00Z,30.3288,-87.8293,1.591,16.14,1111122 
DISL,ioos:station:DISL:BSCA:1,2018-10-01T22:30:00Z,30.3288,-87.8293,1.6,16.1,11111222 
DISL,ioos:station:DISL:BSCA:1,2018-10-01T23:00:00Z,30.3288,-87.8293,1.635,16.17,1111122 
DISL,ioos:station:DISL:BSCA:1,2018-10-01T23:30:00Z,30.3288,-87.8293,1.7,16.2,11111222 
DISL,ioos:station:DISL:BSCA:1,2018-10-02T00:00:00Z,30.3288,-87.8293,1.7,16.1,11111222 
DISL,ioos:station:DISL:BSCA:1,2018-10-02T00:30:00Z,30.3288,-87.8293,1.723,16.17,1111122 
DISL,ioos:station:DISL:BSCA:1,2018-10-02T01:00:00Z,30.3288,-87.8293,1.8,16.1,11111222 
DISL,ioos:station:DISL:BSCA:1,2018-10-02T01:30:00Z,30.3288,-87.8293,1.765,16.23,1111122 
DISL,ioos:station:DISL:BSCA:1,2018-10-02T02:00:00Z,30.3288,-87.8293,1.783,16.19,1111122 
DISL,ioos:station:DISL:BSCA:1,2018-10-02T02:30:00Z,30.3288,-87.8293,1.8,16.3,11111222 
DISL,ioos:station:DISL:BSCA:1,2018-10-02T03:00:00Z,30.3288,-87.8293,1.877,16.22,1111122 
DISL,ioos:station:DISL:BSCA:1,2018-10-02T03:30:00Z,30.3288,-87.8293,1.9,16.5,11111222 
DISL,ioos:station:DISL:BSCA:1,2018-10-02T04:00:00Z,30.3288,-87.8293,1.9,16.5,11111222 
DISL,ioos:station:DISL:BSCA:1,2018-10-02T04:30:00Z,30.3288,-87.8293,1.936,16.53,1111122 
DISL,ioos:station:DISL:BSCA:1,2018-10-02T05:00:00Z,30.3288,-87.8293,2.0,16.7,11111222 
DISL,ioos:station:DISL:BSCA:1,2018-10-02T05:30:00Z,30.3288,-87.8293,1.988,16.64,1111122 
DISL,ioos:station:DISL:BSCA:1,2018-10-02T06:00:00Z,30.3288,-87.8293,2.006,16.74,1111122 
DISL,ioos:station:DISL:BSCA:1,2018-10-02T06:30:00Z,30.3288,-87.8293,2.0,16.9,11111222 
DISL,ioos:station:DISL:BSCA:1,2018-10-02T07:00:00Z,30.3288,-87.8293,2.0,16.8,11111222 
DISL,ioos:station:DISL:BSCA:1,2018-10-02T07:30:00Z,30.3288,-87.8293,2.029,16.59,1111122 
DISL,ioos:station:DISL:BSCA:1,2018-10-02T08:00:00Z,30.3288,-87.8293,2.0,16.3,11111222 
DISL,ioos:station:DISL:BSCA:1,2018-10-02T08:30:00Z,30.3288,-87.8293,2.023,16.35,1111122 
DISL,ioos:station:DISL:BSCA:1,2018-10-02T09:00:00Z,30.3288,-87.8293,2.0,16.5,11111222 
DISL,ioos:station:DISL:BSCA:1,2018-10-02T09:30:00Z,30.3288,-87.8293,2.008,16.4,1111122 
DISL,ioos:station:DISL:BSCA:1,2018-10-02T10:00:00Z,30.3288,-87.8293,2.0,16.4,11111222 
DISL,ioos:station:DISL:BSCA:1,2018-10-02T10:30:00Z,30.3288,-87.8293,1.984,16.43,1111122 
DISL,ioos:station:DISL:BSCA:1,2018-10-02T11:00:00Z,30.3288,-87.8293,1.969,16.5,1111122 
DISL,ioos:station:DISL:BSCA:1,2018-10-02T11:30:00Z,30.3288,-87.8293,2.0,16.5,11111222 
DISL,ioos:station:DISL:BSCA:1,2018-10-02T12:00:00Z,30.3288,-87.8293,1.9,16.5,11111222 
DISL,ioos:station:DISL:BSCA:1,2018-10-02T12:30:00Z,30.3288,-87.8293,1.907,16.58,1111122 
DISL,ioos:station:DISL:BSCA:1,2018-10-02T13:00:00Z,30.3288,-87.8293,1.9,16.7,11111222 
DISL,ioos:station:DISL:BSCA:1,2018-10-02T13:30:00Z,30.3288,-87.8293,1.862,16.93,1111122 
DISL,ioos:station:DISL:BSCA:1,2018-10-02T14:00:00Z,30.3288,-87.8293,1.837,16.75,1111122 
DISL,ioos:station:DISL:BSCA:1,2018-10-02T14:30:00Z,30.3288,-87.8293,1.8,16.8,11111222 
DISL,ioos:station:DISL:BSCA:1,2018-10-02T15:00:00Z,30.3288,-87.8293,1.782,16.63,1111122 
DISL,ioos:station:DISL:BSCA:1,2018-10-02T15:30:00Z,30.3288,-87.8293,1.8,16.7,11111222 
DISL,ioos:station:DISL:BSCA:1,2018-10-02T16:00:00Z,30.3288,-87.8293,1.7,16.7,11111222 
DISL,ioos:station:DISL:BSCA:1,2018-10-02T16:30:00Z,30.3288,-87.8293,1.704,17.17,1111122 
DISL,ioos:station:DISL:BSCA:1,2018-10-02T17:00:00Z,30.3288,-87.8293,1.7,17.3,11111222 
DISL,ioos:station:DISL:BSCA:1,2018-10-02T17:30:00Z,30.3288,-87.8293,1.645,17.82,1111122 
DISL,ioos:station:DISL:BSCA:1,2018-10-02T18:00:00Z,30.3288,-87.8293,1.623,17.67,1111122 
DISL,ioos:station:DISL:BSCA:1,2018-10-02T18:30:00Z,30.3288,-87.8293,1.6,17.1,11111222 
DISL,ioos:station:DISL:BSCA:1,2018-10-02T19:00:00Z,30.3288,-87.8293,1.599,16.64,1111122 
DISL,ioos:station:DISL:BSCA:1,2018-10-02T19:30:00Z,30.3288,-87.8293,1.6,16.9,11111222 
DISL,ioos:station:DISL:BSCA:1,2018-10-02T20:00:00Z,30.3288,-87.8293,1.6,16.7,11111222 
DISL,ioos:station:DISL:BSCA:1,2018-10-02T20:30:00Z,30.3288,-87.8293,1.553,16.75,1111122 
DISL,ioos:station:DISL:BSCA:1,2018-10-02T21:00:00Z,30.3288,-87.8293,1.6,16.8,11111222 
DISL,ioos:station:DISL:BSCA:1,2018-10-02T21:30:00Z,30.3288,-87.8293,1.573,17.12,1111122 
DISL,ioos:station:DISL:BSCA:1,2018-10-02T22:00:00Z,30.3288,-87.8293,1.6,16.9,11111222 
DISL,ioos:station:DISL:BSCA:1,2018-10-02T22:30:00Z,30.3288,-87.8293,1.601,16.57,1111122 
DISL,ioos:station:DISL:BSCA:1,2018-10-02T23:00:00Z,30.3288,-87.8293,1.625,16.62,1111122 
DISL,ioos:station:DISL:BSCA:1,2018-10-02T23:30:00Z,30.3288,-87.8293,1.7,16.6,11111222 
DISL,ioos:station:DISL:BSCA:1,2018-10-03T00:00:00Z,30.3288,-87.8293,1.7,16.9,11111222 
DISL,ioos:station:DISL:BSCA:1,2018-10-03T00:30:00Z,30.3288,-87.8293,1.719,16.88,1111122 
DISL,ioos:station:DISL:BSCA:1,2018-10-03T01:00:00Z,30.3288,-87.8293,1.8,16.7,11111222 
DISL,ioos:station:DISL:BSCA:1,2018-10-03T01:30:00Z,30.3288,-87.8293,1.777,17.16,1111122 
DISL,ioos:station:DISL:BSCA:1,2018-10-03T02:00:00Z,30.3288,-87.8293,1.803,17.69,1111122 
DISL,ioos:station:DISL:BSCA:1,2018-10-03T02:30:00Z,30.3288,-87.8293,1.825,17.3,1111122 
DISL,ioos:station:DISL:BSCA:1,2018-10-03T03:00:00Z,30.3288,-87.8293,1.9,17.2,11111222 
DISL,ioos:station:DISL:BSCA:1,2018-10-03T03:30:00Z,30.3288,-87.8293,1.9,17.6,11111222 
DISL,ioos:station:DISL:BSCA:1,2018-10-03T04:00:00Z,30.3288,-87.8293,1.9,17.7,11111222 
DISL,ioos:station:DISL:BSCA:1,2018-10-03T04:30:00Z,30.3288,-87.8293,2.0,17.9,11111222 
DISL,ioos:station:DISL:BSCA:1,2018-10-03T05:00:00Z,30.3288,-87.8293,1.976,17.9,1111122 
DISL,ioos:station:DISL:BSCA:1,2018-10-03T05:30:00Z,30.3288,-87.8293,2.0,17.9,11111222 
DISL,ioos:station:DISL:BSCA:1,2018-10-03T06:00:00Z,30.3288,-87.8293,2.031,17.91,1111122 
DISL,ioos:station:DISL:BSCA:1,2018-10-03T06:30:00Z,30.3288,-87.8293,2.0,17.6,11111222 
DISL,ioos:station:DISL:BSCA:1,2018-10-03T07:00:00Z,30.3288,-87.8293,2.083,17.93,1111122 
DISL,ioos:station:DISL:BSCA:1,2018-10-03T07:30:00Z,30.3288,-87.8293,2.1,18.3,11111222 
DISL,ioos:station:DISL:BSCA:1,2018-10-03T08:00:00Z,30.3288,-87.8293,2.1,18.5,11111222 
DISL,ioos:station:DISL:BSCA:1,2018-10-03T08:30:00Z,30.3288,-87.8293,2.124,18.26,1111122 
DISL,ioos:station:DISL:BSCA:1,2018-10-03T09:00:00Z,30.3288,-87.8293,2.1,18.4,11111222 
DISL,ioos:station:DISL:BSCA:1,2018-10-03T09:30:00Z,30.3288,-87.8293,2.13,18.41,1111122 
DISL,ioos:station:DISL:BSCA:1,2018-10-03T10:00:00Z,30.3288,-87.8293,2.111,18.55,1111122 
DISL,ioos:station:DISL:BSCA:1,2018-10-03T10:30:00Z,30.3288,-87.8293,2.1,18.5,11111222 
DISL,ioos:station:DISL:BSCA:1,2018-10-03T11:00:00Z,30.3288,-87.8293,2.078,18.48,1111122 
DISL,ioos:station:DISL:BSCA:1,2018-10-03T11:30:00Z,30.3288,-87.8293,2.1,18.2,11111222 
DISL,ioos:station:DISL:BSCA:1,2018-10-03T12:00:00Z,30.3288,-87.8293,2.0,17.8,11111222 
DISL,ioos:station:DISL:BSCA:1,2018-10-03T12:30:00Z,30.3288,-87.8293,2.017,17.47,1111122 
DISL,ioos:station:DISL:BSCA:1,2018-10-03T13:00:00Z,30.3288,-87.8293,2.0,17.7,11111222 
DISL,ioos:station:DISL:BSCA:1,2018-10-03T13:30:00Z,30.3288,-87.8293,1.969,17.37,1111122 
DISL,ioos:station:DISL:BSCA:1,2018-10-03T14:00:00Z,30.3288,-87.8293,2.0,17.6,11111222 
DISL,ioos:station:DISL:BSCA:1,2018-10-03T14:30:00Z,30.3288,-87.8293,1.92,17.78,1111122 
DISL,ioos:station:DISL:BSCA:1,2018-10-03T15:00:00Z,30.3288,-87.8293,1.888,18.42,1111122 
DISL,ioos:station:DISL:BSCA:1,2018-10-03T15:30:00Z,30.3288,-87.8293,1.9,18.7,11111222 
DISL,ioos:station:DISL:BSCA:1,2018-10-03T16:00:00Z,30.3288,-87.8293,1.8,18.2,11111222 
DISL,ioos:station:DISL:BSCA:1,2018-10-03T16:30:00Z,30.3288,-87.8293,1.796,17.77,1111122 
DISL,ioos:station:DISL:BSCA:1,2018-10-03T17:00:00Z,30.3288,-87.8293,1.8,17.7,11111222 
DISL,ioos:station:DISL:BSCA:1,2018-10-03T17:30:00Z,30.3288,-87.8293,1.734,17.6,1111122 
DISL,ioos:station:DISL:BSCA:1,2018-10-03T18:00:00Z,30.3288,-87.8293,1.71,17.72,1111122 
DISL,ioos:station:DISL:BSCA:1,2018-10-03T18:30:00Z,30.3288,-87.8293,1.7,17.4,11111222 
DISL,ioos:station:DISL:BSCA:1,2018-10-03T19:00:00Z,30.3288,-87.8293,1.7,17.2,11111222 
DISL,ioos:station:DISL:BSCA:1,2018-10-03T19:30:00Z,30.3288,-87.8293,1.626,17.44,1111122 
DISL,ioos:station:DISL:BSCA:1,2018-10-03T20:00:00Z,30.3288,-87.8293,1.6,17.7,11111222 
DISL,ioos:station:DISL:BSCA:1,2018-10-03T20:30:00Z,30.3288,-87.8293,1.586,18.41,1111122 
DISL,ioos:station:DISL:BSCA:1,2018-10-03T21:00:00Z,30.3288,-87.8293,1.6,18.3,11111222 
DISL,ioos:station:DISL:BSCA:1,2018-10-03T21:30:00Z,30.3288,-87.8293,1.587,18.21,1111122 
DISL,ioos:station:DISL:BSCA:1,2018-10-03T22:00:00Z,30.3288,-87.8293,1.597,17.73,1111122 
DISL,ioos:station:DISL:BSCA:1,2018-10-03T22:30:00Z,30.3288,-87.8293,1.6,17.9,11111222 
DISL,ioos:station:DISL:BSCA:1,2018-10-03T23:00:00Z,30.3288,-87.8293,1.612,17.88,1111122 
DISL,ioos:station:DISL:BSCA:1,2018-10-03T23:30:00Z,30.3288,-87.8293,1.6,17.6,11111222 
DISL,ioos:station:DISL:BSCA:1,2018-10-04T00:00:00Z,30.3288,-87.8293,1.7,17.5,11111222 
DISL,ioos:station:DISL:BSCA:1,2018-10-04T00:30:00Z,30.3288,-87.8293,1.671,17.59,1111122 
DISL,ioos:station:DISL:BSCA:1,2018-10-04T01:00:00Z,30.3288,-87.8293,1.697,17.34,1111122 
DISL,ioos:station:DISL:BSCA:1,2018-10-04T01:30:00Z,30.3288,-87.8293,1.7,17.4,11111222 
DISL,ioos:station:DISL:BSCA:1,2018-10-04T02:00:00Z,30.3288,-87.8293,1.775,17.58,1111122 
DISL,ioos:station:DISL:BSCA:1,2018-10-04T02:30:00Z,30.3288,-87.8293,1.8,17.4,11111222 
DISL,ioos:station:DISL:BSCA:1,2018-10-04T03:00:00Z,30.3288,-87.8293,1.846,17.58,1111122 
DISL,ioos:station:DISL:BSCA:1,2018-10-04T03:30:00Z,30.3288,-87.8293,1.9,17.0,11111222 
DISL,ioos:station:DISL:BSCA:1,2018-10-04T04:00:00Z,30.3288,-87.8293,1.9,18.0,11111222 
DISL,ioos:station:DISL:BSCA:1,2018-10-04T04:30:00Z,30.3288,-87.8293,1.926,17.16,1111122 
DISL,ioos:station:DISL:BSCA:1,2018-10-04T05:00:00Z,30.3288,-87.8293,2.0,18.2,11111222 
DISL,ioos:station:DISL:BSCA:1,2018-10-04T05:30:00Z,30.3288,-87.8293,1.97,17.62,1111122 
DISL,ioos:station:DISL:BSCA:1,2018-10-04T06:00:00Z,30.3288,-87.8293,1.993,18.64,1111122 
DISL,ioos:station:DISL:BSCA:1,2018-10-04T06:30:00Z,30.3288,-87.8293,2.0,19.0,11111222 
DISL,ioos:station:DISL:BSCA:1,2018-10-04T07:00:00Z,30.3288,-87.8293,2.033,19.03,1111122 
DISL,ioos:station:DISL:BSCA:1,2018-10-04T07:30:00Z,30.3288,-87.8293,2.1,19.1,11111222 
DISL,ioos:station:DISL:BSCA:1,2018-10-04T08:00:00Z,30.3288,-87.8293,2.1,19.0,11111222 
DISL,ioos:station:DISL:BSCA:1,2018-10-04T08:30:00Z,30.3288,-87.8293,2.081,19.04,1111122 
DISL,ioos:station:DISL:BSCA:1,2018-10-04T09:00:00Z,30.3288,-87.8293,2.094,18.94,1111122 
DISL,ioos:station:DISL:BSCA:1,2018-10-04T09:30:00Z,30.3288,-87.8293,2.1,18.9,11111222 
DISL,ioos:station:DISL:BSCA:1,2018-10-04T10:00:00Z,30.3288,-87.8293,2.1,18.9,11111222 
DISL,ioos:station:DISL:BSCA:1,2018-10-04T10:30:00Z,30.3288,-87.8293,2.117,18.83,1111122 
DISL,ioos:station:DISL:BSCA:1,2018-10-04T11:00:00Z,30.3288,-87.8293,2.116,18.91,1111122 
DISL,ioos:station:DISL:BSCA:1,2018-10-04T11:30:00Z,30.3288,-87.8293,2.1,18.8,11111222 
DISL,ioos:station:DISL:BSCA:1,2018-10-04T12:00:00Z,30.3288,-87.8293,2.1,18.9,11111222 
DISL,ioos:station:DISL:BSCA:1,2018-10-04T12:30:00Z,30.3288,-87.8293,2.077,18.86,1111122 
DISL,ioos:station:DISL:BSCA:1,2018-10-04T13:00:00Z,30.3288,-87.8293,2.1,18.9,11111222 
DISL,ioos:station:DISL:BSCA:1,2018-10-04T13:30:00Z,30.3288,-87.8293,2.037,18.76,1111122 
DISL,ioos:station:DISL:BSCA:1,2018-10-04T14:00:00Z,30.3288,-87.8293,2.014,18.82,1111122 
DISL,ioos:station:DISL:BSCA:1,2018-10-04T14:30:00Z,30.3288,-87.8293,2.0,19.1,11111222 
DISL,ioos:station:DISL:BSCA:1,2018-10-04T15:00:00Z,30.3288,-87.8293,1.972,19.22,1111122 
DISL,ioos:station:DISL:BSCA:1,2018-10-04T15:30:00Z,30.3288,-87.8293,1.9,19.2,11111222 
DISL,ioos:station:DISL:BSCA:1,2018-10-04T16:00:00Z,30.3288,-87.8293,1.912,19.31,1111122 
DISL,ioos:station:DISL:BSCA:1,2018-10-04T16:30:00Z,30.3288,-87.8293,1.9,19.5,11111222 
DISL,ioos:station:DISL:BSCA:1,2018-10-04T17:00:00Z,30.3288,-87.8293,1.9,19.5,11111222 
DISL,ioos:station:DISL:BSCA:1,2018-10-04T17:30:00Z,30.3288,-87.8293,1.82,19.52,1111122 
DISL,ioos:station:DISL:BSCA:1,2018-10-04T18:00:00Z,30.3288,-87.8293,1.79,19.39,1111122 
DISL,ioos:station:DISL:BSCA:1,2018-10-04T18:30:00Z,30.3288,-87.8293,1.8,19.2,11111222 
DISL,ioos:station:DISL:BSCA:1,2018-10-04T19:00:00Z,30.3288,-87.8293,1.724,17.9,1111122 
DISL,ioos:station:DISL:BSCA:1,2018-10-04T19:30:00Z,30.3288,-87.8293,1.7,17.9,11111222 
DISL,ioos:station:DISL:BSCA:1,2018-10-04T20:00:00Z,30.3288,-87.8293,1.7,17.9,11111222 
DISL,ioos:station:DISL:BSCA:1,2018-10-04T20:30:00Z,30.3288,-87.8293,1.654,17.9,1111122 
DISL,ioos:station:DISL:BSCA:1,2018-10-04T21:00:00Z,30.3288,-87.8293,1.6,17.7,11111222 
DISL,ioos:station:DISL:BSCA:1,2018-10-04T21:30:00Z,30.3288,-87.8293,1.641,17.86,1111122 
DISL,ioos:station:DISL:BSCA:1,2018-10-04T22:00:00Z,30.3288,-87.8293,1.638,17.62,1111122 
DISL,ioos:station:DISL:BSCA:1,2018-10-04T22:30:00Z,30.3288,-87.8293,1.6,17.5,11111222 
DISL,ioos:station:DISL:BSCA:1,2018-10-04T23:00:00Z,30.3288,-87.8293,1.649,17.57,1111122 
DISL,ioos:station:DISL:BSCA:1,2018-10-04T23:30:00Z,30.3288,-87.8293,1.7,18.2,11111222 
DISL,ioos:station:DISL:BSCA:1,2018-10-05T00:00:00Z,30.3288,-87.8293,1.676,17.9,1111122 
DISL,ioos:station:DISL:BSCA:1,2018-10-05T00:30:00Z,30.3288,-87.8293,1.7,18.3,11111222 
DISL,ioos:station:DISL:BSCA:1,2018-10-05T01:00:00Z,30.3288,-87.8293,1.712,18.14,1111122 
DISL,ioos:station:DISL:BSCA:1,2018-10-05T01:30:00Z,30.3288,-87.8293,1.7,18.3,11111222 
DISL,ioos:station:DISL:BSCA:1,2018-10-05T02:00:00Z,30.3288,-87.8293,1.775,17.96,1111122 
DISL,ioos:station:DISL:BSCA:1,2018-10-05T02:30:00Z,30.3288,-87.8293,1.8,17.8,11111222 
DISL,ioos:station:DISL:BSCA:1,2018-10-05T03:00:00Z,30.3288,-87.8293,1.828,17.99,1111122 
DISL,ioos:station:DISL:BSCA:1,2018-10-05T03:30:00Z,30.3288,-87.8293,1.9,18.7,11111222 
DISL,ioos:station:DISL:BSCA:1,2018-10-05T04:00:00Z,30.3288,-87.8293,1.874,18.7,1111122 
DISL,ioos:station:DISL:BSCA:1,2018-10-05T04:30:00Z,30.3288,-87.8293,1.9,18.7,11111222 
DISL,ioos:station:DISL:BSCA:1,2018-10-05T05:00:00Z,30.3288,-87.8293,1.916,18.8,1111122 
DISL,ioos:station:DISL:BSCA:1,2018-10-05T05:30:00Z,30.3288,-87.8293,1.9,18.8,11111222 
DISL,ioos:station:DISL:BSCA:1,2018-10-05T06:00:00Z,30.3288,-87.8293,1.949,18.88,1111122 
DISL,ioos:station:DISL:BSCA:1,2018-10-05T06:30:00Z,30.3288,-87.8293,2.0,18.8,11111222 
DISL,ioos:station:DISL:BSCA:1,2018-10-05T07:00:00Z,30.3288,-87.8293,1.971,18.98,1111122 
DISL,ioos:station:DISL:BSCA:1,2018-10-05T07:30:00Z,30.3288,-87.8293,2.0,19.2,11111222 
DISL,ioos:station:DISL:BSCA:1,2018-10-05T08:00:00Z,30.3288,-87.8293,2.0,19.1,11111222 
DISL,ioos:station:DISL:BSCA:1,2018-10-05T08:30:00Z,30.3288,-87.8293,2.015,19.1,1111122 
DISL,ioos:station:DISL:BSCA:1,2018-10-05T09:00:00Z,30.3288,-87.8293,2.038,19.16,1111122 
DISL,ioos:station:DISL:BSCA:1,2018-10-05T09:30:00Z,30.3288,-87.8293,2.1,19.0,11111222 
DISL,ioos:station:DISL:BSCA:1,2018-10-05T10:00:00Z,30.3288,-87.8293,2.056,18.86,1111122 
DISL,ioos:station:DISL:BSCA:1,2018-10-05T10:30:00Z,30.3288,-87.8293,2.1,18.8,11111222 
DISL,ioos:station:DISL:BSCA:1,2018-10-05T11:00:00Z,30.3288,-87.8293,2.069,18.22,1111122 
DISL,ioos:station:DISL:BSCA:1,2018-10-05T11:30:00Z,30.3288,-87.8293,2.1,18.6,11111222 
DISL,ioos:station:DISL:BSCA:1,2018-10-05T12:00:00Z,30.3288,-87.8293,2.1,18.2,11111222 
DISL,ioos:station:DISL:BSCA:1,2018-10-05T12:30:00Z,30.3288,-87.8293,2.058,17.81,1111122 
DISL,ioos:station:DISL:BSCA:1,2018-10-05T13:00:00Z,30.3288,-87.8293,2.042,18.29,1111122 
DISL,ioos:station:DISL:BSCA:1,2018-10-05T13:30:00Z,30.3288,-87.8293,2.0,18.6,11111222 
DISL,ioos:station:DISL:BSCA:1,2018-10-05T14:00:00Z,30.3288,-87.8293,2.004,18.46,1111122 
DISL,ioos:station:DISL:BSCA:1,2018-10-05T14:30:00Z,30.3288,-87.8293,2.0,18.5,11111222 
DISL,ioos:station:DISL:BSCA:1,2018-10-05T15:00:00Z,30.3288,-87.8293,1.974,18.43,1111122 
DISL,ioos:station:DISL:BSCA:1,2018-10-05T15:30:00Z,30.3288,-87.8293,2.0,18.8,11111222 
DISL,ioos:station:DISL:BSCA:1,2018-10-05T16:00:00Z,30.3288,-87.8293,1.9,19.2,11111222 
DISL,ioos:station:DISL:BSCA:1,2018-10-05T16:30:00Z,30.3288,-87.8293,1.924,19.52,1111122 
DISL,ioos:station:DISL:BSCA:1,2018-10-05T17:00:00Z,30.3288,-87.8293,1.9,19.2,11111222 
DISL,ioos:station:DISL:BSCA:1,2018-10-05T17:30:00Z,30.3288,-87.8293,1.864,18.91,1111122 
DISL,ioos:station:DISL:BSCA:1,2018-10-05T18:00:00Z,30.3288,-87.8293,1.837,18.65,1111122 
DISL,ioos:station:DISL:BSCA:1,2018-10-05T18:30:00Z,30.3288,-87.8293,1.8,19.4,11111222 
DISL,ioos:station:DISL:BSCA:1,2018-10-05T19:00:00Z,30.3288,-87.8293,1.796,19.4,1111122 
DISL,ioos:station:DISL:BSCA:1,2018-10-05T19:30:00Z,30.3288,-87.8293,1.8,17.8,11111222 
DISL,ioos:station:DISL:BSCA:1,2018-10-05T20:00:00Z,30.3288,-87.8293,1.7,18.4,11111222 
DISL,ioos:station:DISL:BSCA:1,2018-10-05T20:30:00Z,30.3288,-87.8293,1.723,17.88,1111122 
DISL,ioos:station:DISL:BSCA:1,2018-10-05T21:00:00Z,30.3288,-87.8293,1.7,17.7,11111222 
DISL,ioos:station:DISL:BSCA:1,2018-10-05T21:30:00Z,30.3288,-87.8293,1.704,17.54,1111122 
DISL,ioos:station:DISL:BSCA:1,2018-10-05T22:00:00Z,30.3288,-87.8293,1.707,17.28,1111122 
DISL,ioos:station:DISL:BSCA:1,2018-10-05T22:30:00Z,30.3288,-87.8293,1.7,17.2,11111222 
DISL,ioos:station:DISL:BSCA:1,2018-10-05T23:00:00Z,30.3288,-87.8293,1.733,17.08,1111122 
DISL,ioos:station:DISL:BSCA:1,2018-10-05T23:30:00Z,30.3288,-87.8293,1.8,17.2,11111222 
DISL,ioos:station:DISL:BSCA:1,2018-10-06T00:00:00Z,30.3288,-87.8293,1.8,17.0,11111222 
DISL,ioos:station:DISL:BSCA:1,2018-10-06T00:30:00Z,30.3288,-87.8293,1.819,16.99,1111122 
DISL,ioos:station:DISL:BSCA:1,2018-10-06T01:00:00Z,30.3288,-87.8293,1.834,16.87,1111122 
DISL,ioos:station:DISL:BSCA:1,2018-10-06T01:30:00Z,30.3288,-87.8293,1.9,17.0,11111222 
DISL,ioos:station:DISL:BSCA:1,2018-10-06T02:00:00Z,30.3288,-87.8293,1.9,17.0,11111222 
DISL,ioos:station:DISL:BSCA:1,2018-10-06T02:30:00Z,30.3288,-87.8293,1.897,16.89,1111122 
DISL,ioos:station:DISL:BSCA:1,2018-10-06T03:00:00Z,30.3288,-87.8293,1.9,16.9,11111222 
DISL,ioos:station:DISL:BSCA:1,2018-10-06T03:30:00Z,30.3288,-87.8293,1.942,16.99,1111122 
DISL,ioos:station:DISL:BSCA:1,2018-10-06T04:00:00Z,30.3288,-87.8293,1.959,16.97,1111122 
DISL,ioos:station:DISL:BSCA:1,2018-10-06T04:30:00Z,30.3288,-87.8293,2.0,17.0,11111222 
DISL,ioos:station:DISL:BSCA:1,2018-10-06T05:00:00Z,30.3288,-87.8293,1.988,17.15,1111122 
DISL,ioos:station:DISL:BSCA:1,2018-10-06T05:30:00Z,30.3288,-87.8293,2.0,17.1,11111222 
DISL,ioos:station:DISL:BSCA:1,2018-10-06T06:00:00Z,30.3288,-87.8293,2.022,17.07,1111122 
DISL,ioos:station:DISL:BSCA:1,2018-10-06T06:30:00Z,30.3288,-87.8293,2.0,17.2,11111222 
DISL,ioos:station:DISL:BSCA:1,2018-10-06T07:00:00Z,30.3288,-87.8293,2.0,17.1,11111222 
DISL,ioos:station:DISL:BSCA:1,2018-10-06T07:30:00Z,30.3288,-87.8293,2.046,16.99,1111122 
DISL,ioos:station:DISL:BSCA:1,2018-10-06T08:00:00Z,30.3288,-87.8293,2.1,17.0,11111222 
DISL,ioos:station:DISL:BSCA:1,2018-10-06T08:30:00Z,30.3288,-87.8293,2.073,16.98,1111122 
DISL,ioos:station:DISL:BSCA:1,2018-10-06T09:00:00Z,30.3288,-87.8293,2.082,16.94,1111122 
DISL,ioos:station:DISL:BSCA:1,2018-10-06T09:30:00Z,30.3288,-87.8293,2.1,16.9,11111222 
DISL,ioos:station:DISL:BSCA:1,2018-10-06T10:00:00Z,30.3288,-87.8293,2.11,16.96,1111122 
DISL,ioos:station:DISL:BSCA:1,2018-10-06T10:30:00Z,30.3288,-87.8293,2.1,17.3,11111222 
DISL,ioos:station:DISL:BSCA:1,2018-10-06T11:00:00Z,30.3288,-87.8293,2.139,16.93,1111122 
DISL,ioos:station:DISL:BSCA:1,2018-10-06T11:30:00Z,30.3288,-87.8293,2.2,17.6,11111222 
DISL,ioos:station:DISL:BSCA:1,2018-10-06T12:00:00Z,30.3288,-87.8293,2.2,17.1,11111222 
DISL,ioos:station:DISL:BSCA:1,2018-10-06T12:30:00Z,30.3288,-87.8293,2.175,17.49,1111122 
DISL,ioos:station:DISL:BSCA:1,2018-10-06T13:00:00Z,30.3288,-87.8293,2.178,17.17,1111122 
DISL,ioos:station:DISL:BSCA:1,2018-10-06T13:30:00Z,30.3288,-87.8293,2.2,17.1,11111222 
DISL,ioos:station:DISL:BSCA:1,2018-10-06T14:00:00Z,30.3288,-87.8293,2.169,17.44,1111122 
DISL,ioos:station:DISL:BSCA:1,2018-10-06T14:30:00Z,30.3288,-87.8293,2.2,17.2,11111222 
DISL,ioos:station:DISL:BSCA:1,2018-10-06T15:00:00Z,30.3288,-87.8293,2.163,17.04,1111122 